Regional Weather Roundup
Issued by NWS Kansas City/Pleasant Hill, MO

Home | Current Version | Previous Version | Graphics & Text | Print | Product List | Glossary Off
Versions: 1 2 3 4 5 6 7 8 9 10 11 12 13 14 15 16 17 18 19 20 21 22 23 24 25 26

000
ASUS43 KEAX 162110
RWREAX

WEATHER ROUNDUP FOR EASTERN KANSAS AND NORTHWEST MISSOURI
NATIONAL WEATHER SERVICE KANSAS CITY/PLEASANT HILL MO
300 PM CST FRI FEB 16 2018

KSZ040-057-103>105-MOZ028-029-037-043-162200-
...KANSAS CITY METROPOLITAN AREA...

CITY           SKY/WX    TMP DP  RH WIND       PRES   REMARKS
K.C. INTL      PTSUNNY   35   5  28 E3        30.36F
K.C. DOWNTOWN  CLOUDY    37   6  27 CALM      30.36F
LEES SUMMIT    SUNNY     35   6  29 NW5       30.35F WCI  31
OLATHE - IXD   FLURRIES  35   8  32 NW3       30.36F
OLATHE - OJC   MOSUNNY   35   5  28 VRB6      30.34F WCI  30
LAWRENCE       PTSUNNY   37   6  27 VRB3      30.36F

$$

MOZ001>008-011>017-020>025-030>033-038>040-044>046-053-054-162200-
...NORTHERN AND CENTRAL MISSOURI...

CITY           SKY/WX    TMP DP  RH WIND       PRES   REMARKS
ST. JOSEPH     SUNNY     34   6  31 NE6       30.37F WCI  29
MOSBY            N/A     36   3  25 CALM      30.37F
WARRENSBURG    SUNNY     37   5  25 NE3       30.36F
WHITEMAN AFB   PTSUNNY   36  -1  20 N6        30.31F WCI  32
CLINTON        MOSUNNY   37   5  25 CALM      30.35F
SEDALIA        MOSUNNY   38   3  23 VRB5      30.36F WCI  34
WARSAW         NOT AVBL
CHILLICOTHE      N/A     36  -1  21 N5        30.38F WCI  32
KIRKSVILLE     SUNNY     34   3  27 N6        30.35F WCI  29

$$

MOZ041-047>049-056>058-063>065-088>090-097-162200-
...EASTERN AND SOUTHERN MISSOURI...

CITY           SKY/WX    TMP DP  RH WIND       PRES   REMARKS
ST. LOUIS INTL CLOUDY    40  24  53 N10       30.33S WCI  33
SPIRIT OF STL  CLOUDY    42  20  41 VRB7      30.32F
COLUMBIA       CLOUDY    38   4  24 N12       30.34F WCI  30
JEFFERSON CITY PTSUNNY   41   6  23 VRB7      30.35F
ROLLA          CLOUDY    38  22  52 N5        30.32F WCI  34
OSAGE BEACH    CLOUDY    40  15  36 NE6       30.35
SPRINGFIELD    CLOUDY    43  25  49 NE8G21    30.30F
BRANSON        CLOUDY    41  28  60 N9        30.30F
JOPLIN         CLOUDY    40  25  55 VRB7      30.34F
WEST PLAINS    CLOUDY    44  28  53 N10G17    30.29R

$$

IAZ060-094-KSZ022-034>040-054-083-096-NEZ052-066-093-162200-
...KANSAS...SOUTHEAST NEBRASKA AND IOWA...

CITY           SKY/WX    TMP DP  RH WIND       PRES   REMARKS
TOPEKA         MOSUNNY   36   6  28 SE3       30.37F
MANHATTAN      SUNNY     37   7  28 VRB7      30.35F WCI  32
EMPORIA        PTSUNNY   38   8  29 VRB6      30.34F WCI  33
CHANUTE        CLOUDY    41  16  36 N5        30.34F
WICHITA        CLOUDY    40  11  30 NE5       30.32F
OMAHA          MOSUNNY   28   9  44 S10       30.33F WCI  19
LINCOLN        SUNNY     31   9  39 SW7       30.31F WCI  24
FALLS CITY     SUNNY     32   5  32 CALM      30.36F
LAMONI         SUNNY     30   6  36 CALM      30.33F
DES MOINES     MOSUNNY   24   4  42 SW8       30.35F WCI  15

$$





USA.gov is the U.S. government's official web portal to all federal, state and local government web resources and services.